CAPE
0 0 0 0 0 0 0 0 0 0 0 0 0 0 2 21 1 0 0 0 0 0 0 0 0 3 3 6 5 5 0 0 12 114 595 599 565 502 562 893 1523 1987 1879 2186 2690 2629 2439 2418 2442 2339 2514 2701 3006 3231 3759 4384 4583 4646 4622 4219 4092 4275 4448
0 0 0 0 0 0 0 0 0 0 0 0 0 0 0 0 3 0 0 0 1 4 1 0 0 3 1 8 2 2 15 29 35 479 553 658 628 860 990 1368 1708 1962 2047 2582 2639 2431 2064 2263 2234 2521 2772 2707 2975 3237 3536 4170 4528 4743 4731 4434 4064 4123 4360
0 0 0 0 0 0 0 0 0 0 0 0 0 0 0 0 0 0 0 0 0 2 2 2 0 0 7 4 26 2 29 8 0 986 467 974 1159 926 1065 1054 1964 2136 1949 2305 2995 2602 2127 2286 2529 2791 2960 2797 2762 3133 3356 3665 4266 4609 4767 4278 4098 4097 4318
0 0 0 0 0 0 0 0 0 0 0 0 0 0 0 0 0 0 0 0 2 0 0 4 4 9 25 7 16 0 4 5 5 94 982 1394 927 872 823 780 1353 1750 1875 1696 2113 2450 2374 2357 2836 2812 2738 2484 2226 2633 3380 3546 3985 4625 4802 4645 4482 4444 4323
0 0 0 0 0 0 0 0 0 0 0 0 0 0 0 0 0 0 0 0 0 0 0 1 8 121 28 15 66 23 8 6 5 18 232 936 771 1177 1017 1214 1252 1505 1568 1696 2137 2417 2532 2449 2828 2647 2467 2325 1877 2218 2922 3413 4182 4379 4664 4726 4676 4499 4219
0 0 0 0 0 0 0 0 0 0 0 0 0 0 0 0 0 0 0 0 0 6 0 14 45 291 0 9 78 59 0 1 24 42 165 201 800 1363 1087 1022 1039 1433 2346 2646 2354 2324 2970 2595 2662 2635 2466 2152 1845 1865 2610 3306 3776 4038 4209 4756 4804 4513 4339
0 0 0 0 0 0 0 0 0 0 0 0 0 0 0 0 0 0 0 0 0 1 105 88 21 29 0 3 0 27 0 0 7 42 140 280 918 1145 810 778 751 963 2082 1983 1770 2110 3106 3004 3142 2817 2708 2247 2030 2284 2913 3005 3251 4051 4253 4428 4502 4665 4549
0 0 0 0 0 0 0 0 0 0 0 0 0 0 0 0 0 0 0 0 0 0 322 187 15 388 0 24 10 146 1 0 6 6 78 744 1679 1295 836 600 666 1471 1847 1893 1661 1815 3209 3350 3410 3409 3286 2899 2587 2562 2580 2674 3107 3835 4051 4115 4236 4723 4680
0 0 0 0 0 0 0 0 0 0 0 0 0 0 0 0 0 0 0 0 0 0 6 548 320 12 0 0 4 2 6 81 14 76 1378 1069 1791 1610 1271 1464 1690 1724 1472 1623 2172 3166 3824 3651 3623 3759 3626 3423 3117 3058 2787 2716 3074 3771 3859 3899 3741 4358 4372
0 0 0 0 0 0 0 0 0 0 0 0 0 0 0 0 2 16 0 0 0 29 46 42 63 54 117 12 0 0 16 715 155 388 1611 2507 2175 2894 2420 2563 2145 1694 1598 2214 3694 4386 4297 3904 3865 4034 3917 3679 3379 3289 3054 2970 3044 3461 3645 3462 3817 4231 3964
0 0 1 0 0 0 0 0 0 0 0 0 0 0 0 0 0 0 0 1 32 178 65 111 3 6 26 125 36 34 212 112 244 816 3467 3033 2785 3385 2951 3139 2503 2416 2528 3144 4424 4950 4551 3925 3927 4203 4098 3855 3520 3480 3156 2964 3155 3216 3519 3240 3772 4298 4654
0 0 0 0 0 0 0 0 0 0 0 0 0 0 0 0 0 0 0 105 14 0 17 166 161 2 22 114 145 20 146 604 748 138 329 4117 3983 3843 3960 3736 3656 3947 5412 5236 5103 5366 4775 4113 3998 4371 4197 3894 3689 3518 3114 2698 2852 2926 3118 3305 3763 4465 4800
0 0 0 0 0 0 0 0 0 0 0 0 0 0 0 0 0 0 0 123 139 30 0 0 69 376 253 18 17 0 83 128 317 3292 1946 4061 3880 3756 3656 3781 3717 4244 5775 6014 5729 5633 5084 4287 4046 4351 4249 3960 3818 3778 3196 2736 2464 2924 3184 3361 3726 4464 4907
0 0 0 0 0 0 0 0 0 0 0 0 0 0 0 0 0 0 0 103 15 0 0 0 0 11 16 94 207 54 108 37 292 3882 1183 777 2884 3568 3444 3878 4095 4688 5354 6101 5884 5866 5338 4571 4289 4284 4377 4250 3942 4074 3651 3328 2835 3146 3496 3614 3871 4548 5010
0 0 0 0 0 0 0 0 0 0 0 0 0 0 0 0 0 0 0 0 0 0 0 0 0 0 0 5 12 4 76 69 21 151 972 150 562 2249 3534 3731 3764 4207 4809 5672 5673 5587 5509 4929 4698 4473 4696 4548 4309 3613 3972 3424 3376 3525 3982 4152 4105 4700 5226
0 0 0 0 0 0 0 0 0 0 0 0 0 0 0 0 0 1 0 0 0 0 0 0 2 0 0 12 17 36 587 197 259 176 16 59 1075 2989 3627 3866 3273 4088 4413 5143 5332 5574 5429 5338 5065 4884 5030 4823 4552 3920 4259 3882 3463 4006 4437 4438 4262 4757 5422
0 0 0 0 0 0 0 0 0 0 0 0 0 0 0 0 0 0 0 0 0 7 43 5 0 0 0 1 3 3 2 703 459 199 228 77 660 1754 3103 3883 3833 4180 3920 4585 5191 5060 5119 5169 5110 5069 5206 4975 4724 4422 4733 4546 3900 4282 4853 4789 4650 4969 5711
0 0 0 0 0 5 0 0 0 0 0 0 0 0 0 0 0 0 0 0 12 25 8 3 13 8 28 154 282 344 553 742 2119 1534 292 124 90 341 3079 3990 4153 4145 4167 4681 5147 5508 5483 5381 4815 4848 4949 4958 4924 4846 5155 5074 4409 4569 5317 5154 5134 5268 5891
0 0 0 0 0 0 0 27 29 1 0 0 0 0 0 1 2 4 11 3 0 14 4 2 6 4 127 114 2 0 0 106 143 378 612 1136 456 272 1051 4395 4179 4563 4809 5318 5790 5920 5699 5172 5119 5236 5304 5240 5358 5219 5477 5187 4753 5456 5640 5453 5529 5481 5830
0 0 2 0 0 0 0 0 22 52 3 0 0 0 0 0 0 6 239 56 146 101 4 0 2 30 2 0 1 52 7 11 58 1 1 2 45 363 411 1719 5019 5254 5091 5374 5692 6035 5482 5337 4778 4943 5200 4823 4644 5263 5639 5233 5227 5836 5884 5777 5672 5692 5846
3 0 0 0 0 6 1 44 108 42 160 16 8 0 0 0 2 3 142 327 214 320 280 19 8 26 3 2 1 0 0 0 0 0 0 0 0 14 232 344 2666 5433 5385 5539 5631 6353 5859 5140 4908 4785 4678 4772 5049 5476 5631 5217 5811 5864 6012 5990 5924 5931 6036
3 0 6 0 0 0 35 67 308 163 95 97 84 46 115 256 115 143 1079 662 224 277 158 216 474 717 307 25 1 5 0 0 0 0 0 0 0 0 0 84 213 4577 5538 5387 5523 6269 5925 5337 5132 5505 5402 5276 5443 5806 5593 5367 5861 5807 6074 6119 6167 6291 6350
7 2 8 74 11 13 146 852 365 267 94 164 82 66 122 1094 1027 1250 794 866 884 880 1048 1320 1035 1020 536 348 0 0 0 0 0 0 0 0 0 0 0 0 119 4095 5341 5263 5708 6038 5938 5726 5641 5856 5656 5610 5738 5963 5940 5599 5652 5603 6059 6323 6311 6165 6143
69 51 26 24 126 92 342 528 428 225 236 93 108 145 122 2524 1968 1142 1335 1229 1036 1530 1644 1581 1301 950 448 269 564 190 11 29 5 7 48 39 6 0 0 0 108 4640 5547 5332 5966 6058 5839 5834 5840 6007 5849 5858 5740 5945 5932 5503 5545 5740 5847 6212 6168 6069 5715
16 84 43 67 24 238 897 504 246 267 78 113 106 95 292 1297 1472 1006 1146 1083 1282 1485 1533 1726 1465 1394 1231 872 584 163 39 29 0 544 1092 1420 738 516 76 1097 5318 6078 5884 5691 5847 5774 5634 5902 5975 5937 5817 5763 6017 5860 5902 5904 5741 5766 6049 6184 6070 5826 5421
35 46 49 31 26 223 468 128 203 113 162 162 212 1644 1020 1407 607 931 867 1106 1279 1501 1634 1802 1869 1727 1400 1028 682 327 117 521 911 124 1161 2109 1893 630 592 4356 5231 5312 5028 6052 5887 5800 5948 6023 5843 5770 5921 6014 6158 6040 5962 5906 5752 5662 5959 5896 5738 5568 5092
0 1 10 13 0 36 0 46 84 162 124 88 845 801 984 801 1020 1188 1257 1358 1740 1574 1588 1382 1363 1434 1400 1372 1257 1522 1645 1278 1306 1016 1321 2156 3564 4237 4757 5038 4690 4430 5345 5608 5465 5344 4853 5075 5297 5651 6010 6072 6064 5865 5766 5646 5606 5765 5600 5543 5381 5056 4670
3 0 0 1 0 75 142 343 327 1086 943 699 1110 842 764 594 768 877 1116 1543 1589 1673 1665 1834 1694 1528 1205 1825 2734 1965 1936 2220 1835 1862 2587 4740 4521 3968 3940 4299 4124 4398 5612 5460 4792 4688 4512 5188 5265 5517 5974 5782 5523 5346 5504 5436 5402 5208 5130 4943 4592 4159 3873
1 2 2 246 751 631 421 448 941 870 844 659 488 597 438 329 535 679 907 1236 1507 1771 2418 2407 2071 1818 1700 2176 2375 2660 2968 3075 3071 3013 4412 4498 4198 3966 3912 3784 4411 4836 4783 5009 4861 4928 5041 5123 5336 5460 5467 5109 4905 5302 5222 4907 4577 4717 4512 4238 3913 3700 3588
1107 909 832 682 724 596 400 305 320 228 203 167 331 434 466 356 593 977 1497 1769 1866 2005 2124 2311 2241 2038 2085 2525 2417 2401 2625 2546 2918 3456 3827 3951 3718 3732 3862 4074 4470 4442 4486 4600 4668 4628 4902 5359 5348 5230 5224 5273 4883 4779 4612 4320 4314 4177 4063 3857 3629 3486 3280
1166 688 1110 948 993 719 240 190 200 185 58 266 419 500 526 513 1137 1605 1675 1623 1552 1598 1794 2001 1900 1901 1813 1731 2065 2052 1979 2400 2461 2318 2566 2686 3754 4090 4339 4626 4476 4451 4482 4290 4187 4400 4898 5176 4965 4558 4385 4306 4139 4276 4138 3912 3783 3794 3560 3506 3329 3234 3104
793 559 777 895 733 624 447 52 403 287 291 414 482 605 699 809 840 838 1088 931 1070 1047 1185 1316 1528 1708 1887 1691 2075 2284 2253 2330 2279 2200 2267 2444 2891 3213 4105 4111 4215 4101 4344 4316 4548 4680 4498 4452 4298 4174 3964 3685 3768 3759 3375 3167 3340 3284 3190 3126 3054 2809 2601
557 207 282 608 570 398 334 441 394 304 268 200 158 341 277 254 282 249 205 466 686 970 1052 1097 1279 1434 1599 1739 1862 2047 2249 2423 2372 2214 2267 2143 1771 2284 2749 2818 3300 4140 4010 3697 3688 3811 3717 3865 3703 3634 3594 3322 2913 3162 3266 3099 3013 2839 2714 2529 2506 2086 1900
447 477 434 633 528 319 267 272 176 131 100 47 48 18 1 0 1 7 4 29 564 798 890 776 807 956 1028 1126 966 921 1224 1594 1550 2073 1911 1854 2064 2193 1961 2204 2290 2752 2668 3000 3076 3109 3055 2899 3005 3210 3167 3022 3032 2971 3000 2895 2731 2558 2485 2332 2148 2000 2009
294 680 786 904 396 299 229 172 202 54 39 13 0 0 0 0 0 0 174 500 621 822 883 792 688 594 690 586 526 472 634 836 774 825 825 1382 1611 1491 1701 1783 1692 1924 2959 3254 3296 3256 3281 3187 3110 2974 3074 3095 3202 2907 2803 2776 2682 2671 2561 2322 1988 1872 1678
237 371 568 748 487 284 203 116 51 61 12 0 0 0 0 0 0 0 0 0 453 662 781 892 841 710 583 489 495 695 584 528 596 709 659 993 1238 1390 1591 1884 2001 2540 2847 3356 3332 3338 3305 3221 3226 3284 3010 3113 3471 3177 3238 3182 2990 2945 2684 2372 2078 1605 1426
390 386 332 142 170 34 0 1 0 0 0 0 0 0 0 0 0 0 0 126 268 243 199 300 33 318 283 383 307 490 648 586 527 432 496 775 1113 1220 1613 2138 2711 3088 3250 3355 3372 3343 3368 3377 3258 3305 3308 3304 3402 3242 3263 3075 2924 2909 2800 2363 1700 1558 1627
Wind_Speed
nan nan nan nan nan nan nan nan nan nan nan nan nan nan nan nan nan nan nan nan nan nan nan nan nan nan nan nan nan nan nan nan nan 15 23 19 15 13 13 12 10 10 11 11 13 13 13 15 17 18 17 18 18 19 19 20 20 19 19 19 19 21 20
nan nan nan nan nan nan nan nan nan nan nan nan nan nan nan nan nan nan nan nan nan nan nan nan nan nan nan nan nan nan nan nan nan 16 25 23 19 14 13 12 11 12 11 10 12 13 16 17 19 19 19 18 17 18 19 19 19 18 17 17 18 20 20
nan nan nan nan nan nan nan nan nan nan nan nan nan nan nan nan nan nan nan nan nan nan nan nan nan nan nan nan nan nan nan nan nan 14 23 29 23 16 16 15 17 18 13 8 9 11 14 14 16 18 19 20 18 17 18 19 20 19 18 17 17 17 19
nan nan nan nan nan nan nan nan nan nan nan nan nan nan nan nan nan nan nan nan nan nan nan nan nan nan nan nan nan nan nan nan nan nan 19 28 26 18 23 21 20 20 16 9 8 8 10 13 15 17 20 21 25 22 20 20 19 18 17 17 17 18 19
nan nan nan nan nan nan nan nan nan nan nan nan nan nan nan nan nan nan nan nan nan nan nan nan nan 20 nan nan nan nan nan nan nan nan 12 28 32 27 28 28 24 22 17 13 8 4 5 8 11 15 17 22 24 24 24 24 22 22 21 19 18 17 18
nan nan nan nan nan nan nan nan nan nan nan nan nan nan nan nan nan nan nan nan nan nan nan nan nan 24 nan nan nan nan nan nan nan nan 17 32 37 32 29 32 29 24 23 21 16 10 5 4 11 17 19 19 22 25 26 26 24 22 22 19 17 18 17
nan nan nan nan nan nan nan nan nan nan nan nan nan nan nan nan nan nan nan nan nan nan 23 nan nan nan nan nan nan nan nan nan nan nan 13 30 30 28 31 33 31 25 22 22 20 13 7 5 7 14 18 19 20 24 27 26 26 24 22 20 18 17 17
nan nan nan nan nan nan nan nan nan nan nan nan nan nan nan nan nan nan nan nan nan nan 30 22 nan 25 nan nan nan 18 nan nan nan nan nan 26 28 30 34 32 27 23 21 21 22 18 13 7 7 13 15 16 18 21 25 27 28 26 22 19 18 18 17
nan nan nan nan nan nan nan nan nan nan nan nan nan nan nan nan nan nan nan nan nan nan nan 27 22 nan nan nan nan nan nan nan nan nan 23 29 31 34 36 29 26 24 22 20 19 19 17 11 9 11 13 17 18 19 23 26 28 27 22 18 17 18 19
nan nan nan nan nan nan nan nan nan nan nan nan nan nan nan nan nan nan nan nan nan nan nan nan nan nan 18 nan nan nan nan 22 22 25 29 35 34 37 32 27 26 25 23 20 21 21 18 13 9 9 14 18 18 18 20 23 26 25 23 19 17 18 19
nan nan nan nan nan nan nan nan nan nan nan nan nan nan nan nan nan nan nan nan nan 21 nan 21 nan nan nan 28 nan nan 21 23 28 33 34 31 33 38 34 27 25 28 27 23 23 22 19 14 9 10 14 18 18 17 18 21 22 24 23 19 17 18 20
nan nan nan nan nan nan nan nan nan nan nan nan nan nan nan nan nan nan nan 39 nan nan nan 21 22 nan nan 21 32 nan 22 33 31 26 32 36 34 38 35 29 29 29 29 30 28 25 21 16 12 12 14 17 17 17 18 19 22 24 24 22 18 18 19
nan nan nan nan nan nan nan nan nan nan nan nan nan nan nan nan nan nan nan 38 36 nan nan nan nan 24 18 nan nan nan nan 24 28 35 37 40 39 41 34 28 29 31 34 34 33 30 25 20 16 14 15 16 16 16 17 17 20 23 25 24 20 18 19
nan nan nan nan nan nan nan nan nan nan nan nan nan nan nan nan nan nan nan 42 nan nan nan nan nan nan nan nan 36 nan 32 nan 23 35 35 32 39 41 37 32 31 33 36 39 37 35 31 25 20 17 17 17 16 16 17 19 19 22 25 24 20 18 19
nan nan nan nan nan nan nan nan nan nan nan nan nan nan nan nan nan nan nan nan nan nan nan nan nan nan nan nan nan nan nan nan nan 22 27 24 27 32 30 31 32 34 38 40 39 36 34 30 24 18 18 18 18 16 18 19 20 23 26 24 20 18 18
nan nan nan nan nan nan nan nan nan nan nan nan nan nan nan nan nan nan nan nan nan nan nan nan nan nan nan nan nan nan 25 25 25 21 nan nan 32 31 30 30 33 36 36 39 38 36 34 33 27 22 20 20 19 17 19 19 21 24 26 24 22 20 20
nan nan nan nan nan nan nan nan nan nan nan nan nan nan nan nan nan nan nan nan nan nan nan nan nan nan nan nan nan nan nan 30 26 24 29 nan 31 33 35 33 30 34 35 37 37 36 35 32 29 24 23 21 18 18 20 20 21 24 26 25 22 22 21
nan nan nan nan nan nan nan nan nan nan nan nan nan nan nan nan nan nan nan nan nan nan nan nan nan nan nan 30 35 42 46 44 42 35 28 25 nan 34 38 35 30 30 34 36 37 36 35 33 28 27 27 22 19 19 22 22 21 24 26 24 22 22 22
nan nan nan nan nan nan nan nan nan nan nan nan nan nan nan nan nan nan nan nan nan nan nan nan nan nan 40 38 nan nan nan 44 45 40 30 27 27 29 41 40 36 32 29 32 35 36 36 34 33 33 31 27 24 22 23 22 22 26 26 22 21 22 23
nan nan nan nan nan nan nan nan nan nan nan nan nan nan nan nan nan nan 42 nan 40 31 nan nan nan nan nan nan nan nan nan nan nan nan nan nan nan 35 39 43 41 39 33 29 30 33 37 41 37 34 34 30 25 23 24 24 24 28 26 22 22 23 24
nan nan nan nan nan nan nan nan 27 nan 35 nan nan nan nan nan nan nan 52 46 41 51 43 nan nan nan nan nan nan nan nan nan nan nan nan nan nan nan 44 41 46 47 44 35 32 36 40 40 39 38 39 36 28 26 26 26 27 30 28 24 24 25 25
nan nan nan nan nan nan nan nan 42 45 nan nan nan nan 44 44 51 57 57 54 54 52 40 43 46 42 29 nan nan nan nan nan nan nan nan nan nan nan nan nan 45 51 51 45 41 41 42 40 41 43 44 41 33 28 28 29 30 30 29 26 26 27 27
nan nan nan nan nan nan 42 43 43 47 nan 43 nan nan 35 45 52 59 54 54 56 49 49 52 52 44 42 40 nan nan nan nan nan nan nan nan nan nan nan nan 37 48 53 51 46 43 43 42 43 44 46 45 38 30 29 32 31 30 30 30 30 30 30
nan nan nan nan 41 nan 43 45 39 43 41 nan 43 36 33 45 45 47 49 56 55 52 49 51 48 46 42 40 34 24 nan nan nan nan nan nan nan nan nan nan 26 46 56 54 47 43 42 40 41 45 47 47 40 32 31 34 32 31 32 33 34 34 34
nan nan nan nan nan 41 41 37 44 46 nan 41 38 nan 46 46 44 39 42 46 54 51 47 47 47 48 45 42 37 34 nan nan nan 23 34 37 37 39 nan 35 49 55 58 51 42 40 41 41 44 47 49 48 42 34 34 34 33 35 37 37 37 38 40
nan nan nan nan nan 42 41 40 37 47 45 40 36 49 46 42 42 40 37 43 48 47 44 44 46 47 46 42 40 42 36 33 36 27 36 44 49 34 34 43 44 53 51 44 39 42 44 44 47 49 50 48 42 37 34 35 38 40 40 40 41 44 44
nan nan nan nan nan nan nan nan nan 45 39 nan 53 49 47 48 46 47 46 44 47 47 43 42 41 43 47 44 43 45 46 42 46 42 41 43 50 51 49 47 52 50 45 36 36 40 41 43 46 49 49 46 41 38 36 40 42 44 44 43 46 47 48
nan nan nan nan nan nan 41 47 45 54 54 52 49 45 43 51 50 48 45 48 48 46 45 44 41 41 39 42 41 39 44 50 51 47 38 42 50 48 49 47 43 46 42 38 37 39 42 47 47 47 47 44 42 40 42 45 47 47 47 48 49 51 51
nan nan nan 47 46 43 44 45 52 51 54 53 51 45 49 49 45 45 44 46 47 49 52 50 47 43 45 43 45 50 50 50 47 42 40 40 46 48 45 42 45 43 39 38 43 45 49 50 50 48 46 45 45 47 47 48 49 49 50 52 53 54 54
66 70 66 60 56 56 57 55 49 52 50 50 48 50 48 44 42 44 45 47 50 52 53 52 50 51 51 52 54 53 50 47 47 43 35 37 44 44 43 45 48 46 42 45 49 51 53 55 54 51 49 50 51 51 49 48 49 51 53 55 55 56 56
55 58 64 69 70 61 53 52 61 61 nan 53 48 46 45 47 49 47 48 49 52 52 51 51 51 53 55 55 52 49 46 47 50 47 41 37 41 47 45 47 47 45 42 44 50 53 57 57 57 56 55 53 52 50 49 50 51 53 55 56 56 56 57
60 55 57 66 68 70 67 nan 60 64 63 59 54 50 48 49 50 50 50 52 55 53 52 51 51 51 54 56 54 49 47 47 47 46 47 52 57 54 49 49 52 51 49 53 57 57 58 55 53 55 55 53 50 50 51 53 55 56 56 56 56 57 58
58 57 51 56 70 73 73 71 65 60 57 57 59 57 55 53 54 54 54 53 53 53 54 55 56 56 55 55 52 48 47 49 47 46 49 50 54 54 61 64 60 54 50 51 50 51 55 56 57 56 55 53 53 54 56 56 56 57 56 57 57 59 58
53 54 52 55 58 62 67 68 64 61 59 nan nan nan nan nan nan nan nan nan 52 53 53 55 56 57 53 52 51 49 45 46 45 45 48 53 55 56 53 57 58 57 52 46 45 47 51 55 56 57 58 58 58 58 57 57 57 58 57 56 57 57 57
49 57 57 55 60 63 62 57 54 nan nan nan nan nan nan nan nan nan 51 50 50 51 53 54 55 51 48 51 53 50 45 41 37 39 41 48 53 49 45 45 45 42 40 40 41 43 45 48 51 54 55 58 59 58 57 57 57 58 57 56 56 57 56
56 55 55 53 55 56 55 54 nan nan nan nan nan nan nan nan nan nan nan nan 49 48 51 55 56 53 52 53 52 45 40 37 30 23 17 21 25 26 25 29 32 36 41 42 43 44 44 46 48 51 53 56 57 57 56 56 55 55 56 56 56 56 57
51 50 55 58 58 nan nan nan nan nan nan nan nan nan nan nan nan nan nan 49 48 49 49 51 nan 53 52 52 52 48 44 41 39 33 28 27 29 30 34 36 38 39 41 44 46 48 48 48 49 50 52 54 55 56 56 56 56 56 55 55 56 57 60
Wind_Direction
nan nan nan nan nan nan nan nan nan nan nan nan nan nan nan nan nan nan nan nan nan nan nan nan nan nan nan nan nan nan nan nan nan 256 282 288 293 298 292 291 285 290 292 310 321 330 339 348 351 357 349 340 335 324 318 315 310 304 302 298 293 290 288
nan nan nan nan nan nan nan nan nan nan nan nan nan nan nan nan nan nan nan nan nan nan nan nan nan nan nan nan nan nan nan nan nan 257 290 291 297 295 287 275 268 267 279 306 326 338 354 357 356 353 351 343 340 335 332 325 320 318 311 305 298 292 291
nan nan nan nan nan nan nan nan nan nan nan nan nan nan nan nan nan nan nan nan nan nan nan nan nan nan nan nan nan nan nan nan nan 264 293 291 299 295 282 275 263 268 274 281 308 346 0 354 347 346 344 341 341 340 338 336 331 328 322 313 305 294 294
nan nan nan nan nan nan nan nan nan nan nan nan nan nan nan nan nan nan nan nan nan nan nan nan nan nan nan nan nan nan nan nan nan nan 290 295 301 297 303 296 276 281 295 308 330 351 0 352 337 337 344 345 353 348 340 340 335 327 323 320 310 307 305
nan nan nan nan nan nan nan nan nan nan nan nan nan nan nan nan nan nan nan nan nan nan nan nan nan 260 nan nan nan nan nan nan nan nan 289 287 284 291 303 300 284 276 278 285 288 306 357 344 319 328 341 351 353 350 347 345 339 338 337 330 320 313 309
nan nan nan nan nan nan nan nan nan nan nan nan nan nan nan nan nan nan nan nan nan nan nan nan nan 239 nan nan nan nan nan nan nan nan 207 257 265 277 289 292 286 269 259 268 265 257 266 341 338 341 341 344 351 351 347 347 345 342 339 331 319 313 312
nan nan nan nan nan nan nan nan nan nan nan nan nan nan nan nan nan nan nan nan nan nan 236 nan nan nan nan nan nan nan nan nan nan nan 200 260 273 284 282 285 283 269 263 273 273 277 299 359 334 331 329 339 347 346 342 344 345 343 338 331 321 308 312
nan nan nan nan nan nan nan nan nan nan nan nan nan nan nan nan nan nan nan nan nan nan 209 211 nan 210 nan nan nan 252 nan nan nan nan nan 266 265 275 274 277 281 267 262 267 271 286 309 327 312 317 317 324 336 338 338 340 345 341 335 328 325 315 315
nan nan nan nan nan nan nan nan nan nan nan nan nan nan nan nan nan nan nan nan nan nan nan 226 210 nan nan nan nan nan nan nan nan nan 239 259 259 265 272 282 289 272 267 269 272 285 301 316 309 303 309 314 325 331 333 336 339 339 331 322 327 323 321
nan nan nan nan nan nan nan nan nan nan nan nan nan nan nan nan nan nan nan nan nan nan nan nan nan nan 239 nan nan nan nan 202 228 227 248 253 254 261 268 277 280 272 261 261 267 276 286 303 309 307 305 306 316 323 328 328 330 331 329 323 324 321 321
nan nan nan nan nan nan nan nan nan nan nan nan nan nan nan nan nan nan nan nan nan 223 nan 272 nan nan nan 264 nan nan 189 210 218 208 227 238 254 263 272 271 269 262 256 258 266 272 280 291 289 290 302 299 307 311 319 323 318 323 324 320 313 315 320
nan nan nan nan nan nan nan nan nan nan nan nan nan nan nan nan nan nan nan 228 nan nan nan 227 246 nan nan 224 256 nan 205 199 216 218 216 241 247 255 256 248 248 252 253 260 264 267 270 272 271 276 290 291 297 303 309 310 310 317 318 318 311 310 311
nan nan nan nan nan nan nan nan nan nan nan nan nan nan nan nan nan nan nan 244 234 nan nan nan nan 237 231 nan nan nan nan 218 220 224 227 234 243 256 260 250 248 251 252 256 262 264 265 268 268 272 279 282 284 292 298 301 306 313 314 314 311 308 307
nan nan nan nan nan nan nan nan nan nan nan nan nan nan nan nan nan nan nan 240 nan nan nan nan nan nan nan nan 239 nan 256 nan 233 238 240 231 235 243 249 246 249 251 250 252 258 263 264 272 271 266 269 275 286 290 297 301 299 303 307 309 306 304 306
nan nan nan nan nan nan nan nan nan nan nan nan nan nan nan nan nan nan nan nan nan nan nan nan nan nan nan nan nan nan nan nan nan 235 243 257 261 249 248 252 252 247 246 250 257 263 268 273 273 265 262 270 276 291 291 299 297 298 304 304 300 299 300
nan nan nan nan nan nan nan nan nan nan nan nan nan nan nan nan nan nan nan nan nan nan nan nan nan nan nan nan nan nan 234 257 260 253 nan nan 259 262 256 254 256 254 253 253 258 263 269 271 272 262 256 262 273 284 288 294 296 294 300 301 300 295 292
nan nan nan nan nan nan nan nan nan nan nan nan nan nan nan nan nan nan nan nan nan nan nan nan nan nan nan nan nan nan nan 230 239 251 254 nan 254 264 260 258 254 257 259 258 260 264 265 267 268 269 263 262 272 280 284 286 287 288 294 298 296 291 288
nan nan nan nan nan nan nan nan nan nan nan nan nan nan nan nan nan nan nan nan nan nan nan nan nan nan nan 238 239 225 219 220 229 230 247 254 nan 249 262 265 258 248 246 249 254 260 262 265 272 268 265 266 265 267 268 272 280 278 287 292 292 288 284
nan nan nan nan nan nan nan nan nan nan nan nan nan nan nan nan nan nan nan nan nan nan nan nan nan nan 217 220 nan nan nan 216 223 230 229 240 248 239 243 261 265 261 253 253 254 255 259 266 263 261 261 262 261 264 266 271 274 273 281 286 286 287 287
nan nan nan nan nan nan nan nan nan nan nan nan nan nan nan nan nan nan 218 nan 219 240 nan nan nan nan nan nan nan nan nan nan nan nan nan nan nan 240 242 253 265 271 271 267 267 261 257 259 265 265 264 267 270 268 268 270 267 270 274 279 283 287 293
nan nan nan nan nan nan nan nan 222 nan 225 nan nan nan nan nan nan nan 209 206 209 220 217 nan nan nan nan nan nan nan nan nan nan nan nan nan nan nan 244 248 259 271 272 269 270 265 259 263 269 268 265 267 266 266 270 268 264 268 272 276 283 288 294
nan nan nan nan nan nan nan nan 234 233 nan nan nan nan 226 219 209 212 213 211 212 209 207 215 223 216 231 nan nan nan nan nan nan nan nan nan nan nan nan nan 251 265 269 264 264 269 266 265 269 265 263 263 263 264 268 265 265 269 271 275 281 286 291
nan nan nan nan nan nan 233 237 235 234 nan 227 nan nan 226 230 220 222 219 215 212 213 214 215 216 219 220 230 nan nan nan nan nan nan nan nan nan nan nan nan 246 263 265 263 258 263 264 263 264 264 262 263 264 265 265 267 265 269 272 275 280 283 286
nan nan nan nan 228 nan 237 240 237 235 230 nan 231 227 230 231 222 224 224 218 215 214 216 215 215 218 218 219 219 209 nan nan nan nan nan nan nan nan nan nan 239 255 259 256 255 257 261 258 260 260 259 261 264 263 263 266 267 268 273 274 276 277 282
nan nan nan nan nan 228 238 234 235 236 nan 236 232 nan 232 227 221 222 221 216 217 218 219 222 221 220 221 219 204 188 nan nan nan 227 230 223 225 233 nan 234 241 246 252 255 253 249 249 250 250 253 256 259 259 257 259 262 265 267 267 268 272 274 276
nan nan nan nan nan 225 235 238 236 237 235 236 231 230 231 229 224 219 212 210 213 218 221 225 227 222 217 216 214 202 194 202 218 222 227 228 219 219 232 242 246 245 249 247 241 236 238 245 247 250 254 256 256 254 256 260 263 264 267 269 270 271 274
nan nan nan nan nan nan nan nan nan 242 233 nan 232 231 228 228 225 220 216 214 216 216 216 217 219 218 218 217 215 218 223 224 220 224 230 233 235 228 239 242 240 244 245 245 238 234 237 242 242 245 251 253 252 253 255 258 260 263 266 267 269 270 271
nan nan nan nan nan nan 234 240 235 233 232 232 230 228 231 233 229 226 224 224 220 215 213 212 212 214 218 222 219 226 230 232 236 234 224 234 240 240 236 237 237 239 239 234 228 225 230 232 234 240 244 247 249 251 255 256 259 263 265 266 266 267 267
nan nan nan 229 230 232 237 236 244 244 239 231 227 229 233 233 232 232 230 225 222 219 216 214 213 213 215 218 222 226 230 230 233 241 236 229 238 243 244 239 232 229 229 225 220 220 223 228 230 236 240 246 248 251 252 256 262 266 266 265 266 267 269
225 229 225 227 232 230 233 238 239 241 240 235 230 231 235 237 235 234 230 231 230 228 226 223 222 221 219 218 218 222 224 225 226 224 226 228 232 237 237 236 234 227 219 217 218 221 225 227 228 231 236 241 247 249 252 257 261 263 263 264 265 268 270
211 220 212 223 221 224 240 237 236 237 nan 240 238 236 235 237 239 237 236 236 234 234 231 229 227 225 223 222 221 221 225 226 226 225 213 211 223 231 229 232 230 223 216 215 219 223 226 228 230 233 237 240 244 248 252 257 259 258 260 262 264 266 268
217 222 218 226 227 223 226 nan 235 236 239 239 239 239 241 242 242 241 241 240 238 235 233 230 231 230 227 226 224 224 224 224 225 228 233 228 210 209 222 223 223 219 216 218 219 222 224 226 230 235 238 243 248 251 255 257 256 256 259 261 264 266 267
220 227 215 227 233 231 233 236 235 237 238 239 237 236 240 245 246 246 245 243 242 241 238 233 232 232 230 229 229 229 227 225 223 223 225 230 234 216 203 204 208 214 217 220 221 224 225 228 232 235 240 244 249 251 251 253 255 256 258 261 264 267 267
216 221 220 222 230 231 230 231 236 240 242 nan nan nan nan nan nan nan nan nan 244 243 240 238 237 237 235 233 233 231 230 231 232 231 227 229 230 234 225 214 209 215 211 217 223 224 226 229 232 235 239 241 244 248 250 252 254 257 259 262 265 267 268
221 221 226 229 238 237 234 231 232 nan nan nan nan nan nan nan nan nan 243 244 245 244 239 235 234 235 238 238 236 234 234 239 240 235 232 231 231 231 233 229 218 213 222 222 223 225 226 229 232 235 238 241 242 246 248 251 254 257 260 262 264 267 269
226 226 226 226 235 241 241 238 nan nan nan nan nan nan nan nan nan nan nan nan 245 243 238 234 232 229 230 234 239 242 247 241 241 244 231 246 248 240 233 226 224 222 221 217 220 222 224 229 233 235 238 240 241 245 248 250 254 257 259 261 263 267 267
231 230 234 236 239 nan nan nan nan nan nan nan nan nan nan nan nan nan nan 246 247 247 244 240 nan 235 232 233 236 237 238 238 230 221 218 222 229 233 231 226 221 218 215 215 218 221 224 228 234 237 239 240 242 244 247 251 253 255 256 258 263 264 263